Regional Weather Roundup
Issued by NWS

Home | Current Version | Previous Version | Text Only | Print | Product List | Glossary Off
Versions: 1 2 3 4 5 6 7 8 9 10 11 12 13 14 15 16 17 18 19 20 21 22 23 24 25 26 27 28 29 30 31 32 33 34 35 36 37 38 39 40 41 42 43 44 45 46 47 48 49 50

000
ASUS43 KLSX 201259
RWRMO

WEATHER SUMMARY FOR MISSOURI
NATIONAL WEATHER SERVICE SPRINGFIELD MO
800 AM CDT SUN APR 20 2014

NOTE: "FAIR" INDICATES FEW OR NO CLOUDS BELOW 12,000 FEET WITH NO
       SIGNIFICANT WEATHER AND/OR OBSTRUCTIONS TO VISIBILITY.
       CURRENT SKY AND/OR WEATHER CONDITIONS ARE NOT AVAILABLE FOR
       CHILLICOTHE AND FARMINGTON.

MOZ001>031-035>038-043-044-053-054-201400-
...NORTHERN AND WESTERN MISSOURI...

CITY           SKY/WX    TMP DP  RH WIND       PRES   REMARKS
KANSAS CTY INT MOSUNNY   63  48  58 S14       30.09S
KANSAS C DTWN  SUNNY     63  48  58 SW7       30.09S
LEE`S SUMMIT   SUNNY     60  46  59 S9        30.12R
ST JOSEPH      MOSUNNY   61  49  64 S6        30.07R
KIRKSVILLE     MOSUNNY   58  46  64 S8        30.13S

$$
MOZ066>068-077>081-088>096-101>105-201400-
...SOUTHWEST MISSOURI...

CITY           SKY/WX    TMP DP  RH WIND       PRES   REMARKS
SPRINGFIELD    MOSUNNY   58  48  69 SE9       30.18R
JOPLIN         MOSUNNY   62  50  64 S8        30.16R

$$
MOZ032>034-039>042-045>050-055>058-069>072-201400-
...CENTRAL MISSOURI...

CITY           SKY/WX    TMP DP  RH WIND       PRES   REMARKS
COLUMBIA       MOSUNNY   59  44  57 S8        30.16S
JEFFERSON CITY MOSUNNY   56  45  66 SE6       30.17R
ROLLA          MOSUNNY   58  44  60 S9        30.18R
SEDALIA        SUNNY     62  48  60 S10       30.16R
OSAGE BEACH    SUNNY     59  43  55 SE5       30.19R

$$
MOZ051-052-059>065-201400-
...EAST CENTRAL MISSOURI...

CITY           SKY/WX    TMP DP  RH WIND       PRES   REMARKS
ST LOUIS INTL  PTSUNNY   61  47  59 CALM      30.20S
SPIRIT OF STL  SUNNY     52  46  80 CALM      30.19S
ST CHARLES     SUNNY     57  46  66 E7        30.19S

$$
MOZ072>076-082>087-097>100-106>115-201400-
...SOUTH CENTRAL AND SOUTHEAST MISSOURI...

CITY           SKY/WX    TMP DP  RH WIND       PRES   REMARKS
CAPE GIRARDEAU MOSUNNY   55  51  86 CALM      30.22R
FARMINGTON     MOSUNNY   50  45  81 SE3       30.23S
POPLAR BLUFF   MOSUNNY   54  44  69 CALM      30.20S
WEST PLAINS    MOSUNNY   58  47  66 CALM      30.23R

$$



USA.gov is the U.S. government's official web portal to all federal, state and local government web resources and services.